Weather History for Whiteman AFB, MO

Change the Weather History Date:

Wednesday, May 22, 2013

  Actual Average Record
Temperature  
Mean Temperature 60 °F -  
Max Temperature 67 °F 74 °F 87 °F (1998)
Min Temperature 53 °F 54 °F 46 °F (2001)
Degree Days  
Heating Degree Days 6    
Growing Degree Days 10 (Base 50)    
Moisture  
Dew Point 55 °F    
Average Humidity 81    
Maximum Humidity 100    
Minimum Humidity 65    
Precipitation  
Precipitation 0.00 in - - ()
Sea Level Pressure  
Sea Level Pressure 29.81 in    
Wind  
Wind Speed 7 mph (WSW)    
Max Wind Speed 16 mph    
Max Gust Speed 22 mph    
Visibility 10 miles    
Events      
Averages and records for this station are not official NWS values.
T = Trace of Precipitation, MM = Missing Value Source: NWS Daily Summary

Daily Weather History Graph

Daily Weather History Graph

Search for Another Location

Airport:

Trip Planner

Search our weather history database for the weather conditions in past years. The results will help you decide how hot, cold, wet, or windy it might be!

Date:

Astronomy

May. 22, 2013 Rise Set
Actual Time 5:56 AM CDT 8:25 PM CDT
Civil Twilight 5:25 AM CDT 8:56 PM CDT
Nautical Twilight 4:48 AM CDT 9:34 PM CDT
Astronomical Twilight 4:06 AM CDT 10:16 PM CDT
Moon 5:50 PM CDT (5/22) 3:59 AM CDT (5/22)
Length of Visible Light 15h 30m
Length of Day
14h 29m
Waxing Gibbous, 91% of the Moon is Illuminated
May 22
Waxing Gibbous
May 24
Full
May 31
Last Quarter
Jun 8
New
Jun 16
First Quarter

Hourly Weather History & Observations

Time (CDT) Temp. Dew Point Humidity Pressure Visibility Wind Dir Wind Speed Gust Speed Precip Events Conditions
12:58 AM 60.1 °F 60.1 °F 100% 29.74 in 10.0 mi SW 4.6 mph - N/A   Scattered Clouds
1:58 AM 57.0 °F 57.0 °F 100% 29.74 in 10.0 mi SSW 4.6 mph - N/A   Scattered Clouds
2:58 AM 56.7 °F 56.7 °F 100% 29.73 in 10.0 mi SW 4.6 mph - N/A   Clear
3:58 AM 56.5 °F 56.5 °F 100% 29.72 in 10.0 mi West 4.6 mph - N/A   Scattered Clouds
4:58 AM 54.9 °F 54.9 °F 100% 29.73 in 10.0 mi West 4.6 mph - N/A   Clear
5:58 AM 53.1 °F 53.1 °F 100% 29.74 in 10.0 mi SSW 5.8 mph - N/A   Clear
6:58 AM 55.9 °F 55.9 °F 100% 29.76 in 10.0 mi WSW 3.5 mph - N/A   Mostly Cloudy
7:58 AM 57.9 °F 57.7 °F 99% 29.76 in 10.0 mi West 6.9 mph - N/A   Scattered Clouds
8:58 AM 61.9 °F 56.5 °F 82% 29.78 in 10.0 mi West 8.1 mph - N/A   Partly Cloudy
9:58 AM 65.3 °F 55.0 °F 69% 29.79 in 10.0 mi West 12.7 mph - N/A   Partly Cloudy
10:28 AM 64.4 °F 55.4 °F 73% 29.80 in 10.0 mi West 11.5 mph - N/A   Mostly Cloudy
10:38 AM 64.4 °F 55.4 °F 73% 29.80 in 10.0 mi West 16.1 mph 21.9 mph N/A   Mostly Cloudy
10:58 AM 64.4 °F 54.3 °F 70% 29.81 in 10.0 mi West 13.8 mph - N/A   Mostly Cloudy
11:58 AM 64.6 °F 55.0 °F 71% 29.82 in 10.0 mi WSW 15.0 mph - N/A   Overcast
12:58 PM 64.6 °F 54.5 °F 70% 29.83 in 10.0 mi West 16.1 mph - N/A   Overcast
1:58 PM 64.9 °F 53.6 °F 67% 29.84 in 10.0 mi West 13.8 mph - N/A   Overcast
2:58 PM 64.6 °F 54.1 °F 69% 29.85 in 10.0 mi West 10.4 mph - N/A   Overcast
3:58 PM 64.9 °F 53.6 °F 67% 29.84 in 10.0 mi West 10.4 mph 20.7 mph N/A   Overcast
4:58 PM 66.2 °F 54.1 °F 65% 29.84 in 10.0 mi West 11.5 mph - N/A   Mostly Cloudy
5:58 PM 65.3 °F 54.1 °F 67% 29.86 in 10.0 mi West 10.4 mph - N/A   Overcast
6:58 PM 65.3 °F 53.4 °F 65% 29.85 in 10.0 mi WSW 8.1 mph - N/A   Mostly Cloudy
7:58 PM 64.2 °F 54.7 °F 71% 29.87 in 10.0 mi SW 6.9 mph - N/A   Mostly Cloudy
8:58 PM 62.2 °F 55.6 °F 79% 29.88 in 10.0 mi SW 4.6 mph - N/A   Mostly Cloudy
9:58 PM 61.9 °F 56.5 °F 82% 29.91 in 9.0 mi SW 5.8 mph - N/A   Overcast
10:58 PM 62.1 °F 56.5 °F 82% 29.93 in 10.0 mi WNW 5.8 mph - N/A   Overcast
11:58 PM 61.2 °F 57.9 °F 89% 29.93 in 10.0 mi WSW 2.3 mph - N/A   Overcast